Weather in Zhuravlevka

Russia / Belgorod Oblast     50°18′38″N   36°19′05″E
temp.,
°C
wind,
m/s
gust,
m/s
humid.,
%
clouds,
%
prec.,
mm/h
press.,
hPa
HPBL,
m
14 april, wed
wed1400:00+9s228194 0.0 102134
03:00+8sse228545 0.0 102120
06:00+8e1183100 0.0 102012
09:00+10ese0174100 0.1 1019201
12:00+14ene1262100 0.1 1018660
15:00+16se1251100 0.1 10161473
18:00+14wsw2362100 0.4 1015138
21:00+12w2383100 1.7 1015141
15 april, thu
thu1500:00+10ssw238738 0.1 101485
03:00+8sw349022 0.1 101485
06:00+8ssw248779 0.0 1014104
09:00+11s466599 0.0 1015571
12:00+14sse565593 0.0 10141495
15:00+14s5654100 0.1 10131626
18:00+12sse5771100 1.1 1012677
21:00+10s368211 3.5 1013120
16 april, fri
fri1600:00+9se47865 0.0 1013170
03:00+7sse37895 0.0 1014156
06:00+6sse38915 0.0 1015248
09:00+9sse577279 0.0 1015909
12:00+10sse6762100 0.0 10161382
15:00+11s6765100 0.2 10161153
18:00+10s3670100 0.0 1017747
21:00+9sse228098 0.0 101730
17 april, sat
sat1700:00+7ssw118951 0.3 101813
03:00+6sse118992 0.3 101810
06:00+6w1191100 0.0 101815
09:00+9w3379100 0.1 1018455
12:00+10wnw4574100 0.3 1018796
15:00+11nnw336995 0.8 1019936
18:00+9n3377100 0.6 1019414
21:00+8ene2289100 2.3 1020145
18 april, sun
sun1800:00+8ese349197 1.4 1020172
03:00+7se2387100 1.7 102082
06:00+7ese2589100 0.1 1021147
09:00+9e347962 0.6 1021401
12:00+13e3452100 1.1 10211480
15:00+13ne2351100 2.6 1020991
18:00+12n2463100 1.4 1021485
21:00+9n3582100 2.0 1021111